| time (UTC) | temp C | wind direction | speed KPH | gust KPH | rain 1hr cm | rain 24hr cm | rain mn cm | humidity % | barometer mb |
| 20260504024520 | 10 | 222 | 0.0 | 4.8 | 0.00 | 0.00 | 0.00 | 74 | 1014.4 |
| 20260504023025 | 10 | 222 | 0.0 | 0.0 | 0.00 | 0.00 | 0.00 | 72 | 1014.4 |
| 20260504021518 | 10 | 222 | 0.0 | 0.0 | 0.00 | 0.00 | 0.00 | 70 | 1014.1 |
| 20260504020015 | 10 | 221 | 1.6 | 8.0 | 0.00 | 0.00 | 0.00 | 70 | 1013.9 |
| 20260504014532 | 10 | 218 | 1.6 | 6.4 | 0.00 | 0.00 | 0.00 | 69 | 1013.9 |
| 20260504013014 | 10 | 217 | 0.0 | 6.4 | 0.00 | 0.00 | 0.00 | 65 | 1013.8 |
| 20260504011515 | 10 | 218 | 0.0 | 6.4 | 0.00 | 0.00 | 0.00 | 66 | 1013.8 |
| 20260504010015 | 11 | 198 | 3.2 | 6.4 | 0.00 | 0.00 | 0.00 | 62 | 1013.9 |
| 20260504004512 | 12 | 119 | 1.6 | 6.4 | 0.00 | 0.00 | 0.00 | 59 | 1013.9 |
| 20260504003023 | 12 | 115 | 1.6 | 6.4 | 0.00 | 0.00 | 0.00 | 55 | 1013.8 |
| 20260504001510 | 13 | 101 | 3.2 | 8.0 | 0.00 | 0.00 | 0.00 | 51 | 1013.8 |
| 20260504000006 | 15 | 41 | 0.0 | 0.0 | 0.00 | 0.00 | 0.00 | 41 | 1013.9 |
| 20260503234515 | 16 | 41 | 0.0 | 3.2 | 0.00 | 0.00 | 0.00 | 39 | 1013.7 |
| 20260503233004 | 16 | 41 | 4.8 | 9.7 | 0.00 | 0.00 | 0.00 | 38 | 1013.8 |
| 20260503231503 | 16 | 44 | 4.8 | 11.3 | 0.00 | 0.00 | 0.00 | 38 | 1014.1 |
| 20260503230103 | 16 | 44 | 6.4 | 11.3 | 0.00 | 0.00 | 0.00 | 36 | 1014.2 |
| 20260503224558 | 16 | 14 | 8.0 | 14.5 | 0.00 | 0.00 | 0.00 | 35 | 1014.1 |
| 20260503223100 | 17 | 17 | 4.8 | 12.9 | 0.00 | 0.00 | 0.00 | 36 | 1014.4 |
| 20260503221557 | 17 | 67 | 9.7 | 19.3 | 0.00 | 0.00 | 0.00 | 35 | 1014.4 |
| 20260503220054 | 17 | 35 | 8.0 | 16.1 | 0.00 | 0.00 | 0.00 | 35 | 1014.4 |
| 20260503214552 | 17 | 17 | 11.3 | 20.9 | 0.00 | 0.00 | 0.00 | 34 | 1014.6 |
| 20260503213104 | 17 | 38 | 6.4 | 16.1 | 0.00 | 0.00 | 0.00 | 35 | 1014.6 |
| 20260503211548 | 17 | 9 | 11.3 | 30.6 | 0.00 | 0.00 | 0.00 | 35 | 1014.7 |
| 20260503210056 | 17 | 40 | 9.7 | 16.1 | 0.00 | 0.00 | 0.00 | 34 | 1014.9 |
| 20260503204550 | 17 | 80 | 11.3 | 19.3 | 0.00 | 0.00 | 0.00 | 34 | 1014.9 |
| 20260503203043 | 16 | 74 | 11.3 | 24.1 | 0.00 | 0.00 | 0.00 | 36 | 1015.2 |
| 20260503203040 | 16 | 71 | 11.3 | 24.1 | 0.00 | 0.00 | 0.00 | 36 | 1015.2 |
| 20260503201539 | 17 | 90 | 9.7 | 20.9 | 0.00 | 0.00 | 0.00 | 34 | 1015.5 |
| 20260503200037 | 17 | 360 | 12.9 | 20.9 | 0.00 | 0.00 | 0.00 | 33 | 1015.7 |
| 20260503194535 | 16 | 114 | 9.7 | 22.5 | 0.00 | 0.00 | 0.00 | 33 | 1016.3 |
| 20260503193035 | 17 | 135 | 6.4 | 14.5 | 0.00 | 0.00 | 0.00 | 33 | 1016.5 |
| 20260503191526 | 16 | 94 | 4.8 | 14.5 | 0.00 | 0.00 | 0.00 | 35 | 1016.7 |
| 20260503190027 | 16 | 62 | 11.3 | 20.9 | 0.00 | 0.00 | 0.00 | 37 | 1017.1 |
| 20260503184533 | 16 | 200 | 12.9 | 20.9 | 0.00 | 0.00 | 0.00 | 36 | 1017.1 |
| 20260503183019 | 16 | 65 | 9.7 | 22.5 | 0.00 | 0.00 | 0.00 | 38 | 1017.6 |
| 20260503181518 | 16 | 111 | 4.8 | 11.3 | 0.00 | 0.00 | 0.00 | 37 | 1017.8 |
| 20260503180022 | 15 | 182 | 6.4 | 14.5 | 0.00 | 0.00 | 0.00 | 38 | 1018.0 |
| 20260503174511 | 15 | 355 | 9.7 | 16.1 | 0.00 | 0.00 | 0.00 | 40 | 1018.3 |
| 20260503173014 | 15 | 65 | 3.2 | 14.5 | 0.00 | 0.00 | 0.00 | 39 | 1018.3 |
| 20260503171509 | 15 | 146 | 1.6 | 17.7 | 0.00 | 0.00 | 0.00 | 39 | 1018.6 |
| 20260503081501 | 0 | 145 | 0.0 | 0.0 | 0.00 | 0.00 | 0.00 | 91 | 1018.2 |
| 20260503071557 | 0 | 151 | 0.0 | 0.0 | 0.00 | 0.00 | 0.00 | 89 | 1017.7 |
| 20260503070104 | 1 | 151 | 0.0 | 0.0 | 0.00 | 0.00 | 0.00 | 89 | 1017.7 |
| 20260503054540 | 2 | 153 | 0.0 | 1.6 | 0.00 | 0.00 | 0.00 | 86 | 1017.7 |
| 20260503053038 | 2 | 153 | 0.0 | 0.0 | 0.00 | 0.00 | 0.00 | 85 | 1017.7 |
| 20260503051533 | 3 | 153 | 0.0 | 0.0 | 0.00 | 0.00 | 0.00 | 84 | 1017.7 |
| 20260503050031 | 3 | 153 | 0.0 | 3.2 | 0.00 | 0.00 | 0.00 | 83 | 1017.7 |
| 20260503044527 | 4 | 153 | 0.0 | 0.0 | 0.00 | 0.00 | 0.00 | 83 | 1017.6 |
| 20260503043023 | 4 | 153 | 0.0 | 0.0 | 0.00 | 0.00 | 0.00 | 83 | 1017.5 |
| 20260503041522 | 4 | 153 | 0.0 | 1.6 | 0.00 | 0.00 | 0.00 | 83 | 1017.4 |
| 20260503040020 | 4 | 153 | 0.0 | 0.0 | 0.00 | 0.00 | 0.00 | 82 | 1017.4 |
| 20260503034534 | 4 | 153 | 0.0 | 0.0 | 0.00 | 0.00 | 0.00 | 81 | 1017.4 |
| 20260503033016 | 5 | 153 | 0.0 | 0.0 | 0.00 | 0.00 | 0.00 | 80 | 1017.2 |
| 20260503031518 | 5 | 153 | 0.0 | 0.0 | 0.00 | 0.00 | 0.00 | 80 | 1017.2 |
| 20260503030015 | 5 | 153 | 0.0 | 4.8 | 0.00 | 0.00 | 0.00 | 78 | 1017.2 |